QPF
0.06 0.12 0.13 0.10 0.09 0.10 0.10 0.09 0.09 0.10 0.10 0.08 0.07 0.08 0.11 0.11 0.09 0.08 0.08 0.07 0.06 0.05 0.05 0.06 0.07 0.06 0.06 0.05 0.04 0.04 0.04 0.04 0.04 0.03 0.03 0.02 0.01 0.01 0.01 0.01 0.01 0.01 0.01
0.04 0.07 0.12 0.12 0.10 0.08 0.08 0.08 0.09 0.09 0.10 0.10 0.09 0.09 0.11 0.13 0.11 0.09 0.09 0.09 0.09 0.08 0.07 0.07 0.07 0.07 0.07 0.06 0.05 0.05 0.04 0.05 0.04 0.04 0.04 0.03 0.02 0.02 0.01 0.01 0.01 0.01 0.01
0.05 0.05 0.07 0.10 0.11 0.09 0.07 0.06 0.07 0.08 0.09 0.10 0.10 0.10 0.11 0.12 0.12 0.11 0.10 0.10 0.09 0.10 0.09 0.09 0.08 0.08 0.07 0.06 0.06 0.05 0.04 0.04 0.04 0.03 0.04 0.04 0.04 0.03 0.02 0.02 0.02 0.02 0.01
0.04 0.04 0.05 0.08 0.10 0.10 0.08 0.06 0.06 0.08 0.09 0.10 0.11 0.09 0.09 0.09 0.11 0.12 0.12 0.11 0.09 0.09 0.09 0.09 0.09 0.08 0.07 0.06 0.06 0.05 0.04 0.05 0.05 0.04 0.04 0.05 0.05 0.05 0.04 0.03 0.02 0.02 0.02
0.03 0.04 0.05 0.05 0.08 0.09 0.10 0.08 0.07 0.08 0.09 0.11 0.13 0.12 0.10 0.08 0.09 0.09 0.11 0.12 0.10 0.08 0.07 0.07 0.07 0.07 0.07 0.06 0.05 0.05 0.04 0.05 0.05 0.06 0.06 0.05 0.05 0.05 0.05 0.04 0.03 0.02 0.02
0.03 0.03 0.05 0.05 0.06 0.06 0.08 0.09 0.08 0.08 0.08 0.09 0.12 0.13 0.11 0.10 0.10 0.09 0.08 0.08 0.09 0.08 0.07 0.06 0.06 0.05 0.05 0.05 0.05 0.04 0.04 0.05 0.05 0.06 0.05 0.05 0.05 0.04 0.04 0.04 0.04 0.03 0.03
0.03 0.03 0.03 0.05 0.05 0.05 0.05 0.06 0.08 0.08 0.08 0.10 0.11 0.12 0.10 0.10 0.10 0.09 0.08 0.06 0.06 0.06 0.06 0.07 0.06 0.05 0.04 0.05 0.05 0.04 0.04 0.04 0.05 0.05 0.06 0.05 0.04 0.04 0.04 0.04 0.04 0.04 0.03
0.03 0.03 0.03 0.03 0.04 0.05 0.05 0.05 0.06 0.07 0.07 0.07 0.09 0.11 0.09 0.07 0.07 0.08 0.08 0.06 0.06 0.06 0.05 0.05 0.06 0.06 0.05 0.05 0.05 0.04 0.03 0.03 0.03 0.04 0.04 0.03 0.03 0.04 0.05 0.05 0.06 0.06 0.05
0.04 0.04 0.04 0.04 0.04 0.05 0.06 0.06 0.05 0.06 0.06 0.06 0.06 0.08 0.07 0.06 0.05 0.05 0.06 0.05 0.05 0.05 0.05 0.05 0.05 0.06 0.06 0.05 0.05 0.04 0.03 0.03 0.03 0.04 0.04 0.05 0.05 0.05 0.06 0.08 0.08 0.08 0.07
0.04 0.04 0.04 0.04 0.04 0.05 0.05 0.05 0.05 0.06 0.05 0.05 0.06 0.06 0.05 0.05 0.04 0.04 0.04 0.03 0.03 0.03 0.04 0.04 0.05 0.06 0.07 0.06 0.05 0.04 0.04 0.04 0.03 0.03 0.04 0.04 0.05 0.06 0.07 0.07 0.07 0.08 0.07
0.05 0.03 0.03 0.03 0.04 0.06 0.05 0.04 0.04 0.05 0.05 0.05 0.05 0.05 0.05 0.04 0.04 0.04 0.04 0.03 0.03 0.03 0.04 0.04 0.05 0.06 0.08 0.08 0.06 0.05 0.04 0.03 0.03 0.04 0.04 0.04 0.04 0.05 0.06 0.06 0.06 0.06 0.06
0.05 0.04 0.03 0.04 0.05 0.06 0.06 0.04 0.04 0.04 0.04 0.04 0.04 0.04 0.04 0.04 0.04 0.04 0.05 0.05 0.04 0.03 0.03 0.03 0.04 0.05 0.06 0.07 0.07 0.06 0.05 0.04 0.03 0.04 0.04 0.04 0.04 0.04 0.05 0.06 0.06 0.06 0.06
0.06 0.06 0.05 0.05 0.05 0.06 0.07 0.06 0.04 0.04 0.04 0.04 0.03 0.03 0.03 0.03 0.04 0.03 0.03 0.05 0.05 0.04 0.04 0.04 0.04 0.04 0.05 0.05 0.06 0.06 0.06 0.06 0.06 0.05 0.04 0.04 0.04 0.04 0.04 0.05 0.06 0.06 0.06
0.07 0.07 0.06 0.05 0.05 0.05 0.06 0.06 0.05 0.04 0.04 0.04 0.03 0.03 0.02 0.02 0.02 0.03 0.03 0.03 0.04 0.05 0.05 0.05 0.04 0.04 0.04 0.05 0.06 0.06 0.06 0.06 0.06 0.06 0.04 0.04 0.04 0.04 0.04 0.04 0.05 0.05 0.05
0.07 0.07 0.07 0.06 0.05 0.05 0.06 0.06 0.05 0.05 0.05 0.04 0.03 0.03 0.03 0.02 0.02 0.03 0.03 0.03 0.03 0.04 0.05 0.05 0.05 0.05 0.05 0.05 0.06 0.06 0.06 0.06 0.06 0.05 0.04 0.04 0.04 0.04 0.05 0.04 0.04 0.04 0.04
0.06 0.07 0.06 0.06 0.06 0.05 0.05 0.05 0.05 0.05 0.04 0.03 0.03 0.03 0.03 0.03 0.03 0.03 0.03 0.03 0.03 0.04 0.04 0.06 0.06 0.06 0.06 0.06 0.06 0.06 0.06 0.06 0.06 0.05 0.04 0.04 0.04 0.04 0.04 0.04 0.04 0.04 0.04
0.05 0.06 0.06 0.06 0.06 0.05 0.05 0.04 0.05 0.05 0.04 0.03 0.03 0.03 0.03 0.03 0.03 0.03 0.03 0.03 0.03 0.03 0.04 0.05 0.05 0.05 0.05 0.05 0.05 0.05 0.05 0.05 0.05 0.05 0.05 0.04 0.04 0.04 0.04 0.04 0.04 0.04 0.04
0.04 0.05 0.05 0.06 0.07 0.06 0.06 0.05 0.05 0.05 0.04 0.04 0.03 0.03 0.03 0.03 0.04 0.04 0.03 0.04 0.04 0.04 0.04 0.04 0.04 0.04 0.04 0.04 0.04 0.04 0.04 0.04 0.04 0.04 0.04 0.04 0.04 0.04 0.04 0.04 0.04 0.04 0.04
0.05 0.04 0.05 0.05 0.06 0.06 0.06 0.06 0.06 0.05 0.05 0.04 0.04 0.04 0.04 0.04 0.04 0.05 0.05 0.04 0.04 0.04 0.04 0.04 0.04 0.03 0.03 0.03 0.03 0.03 0.03 0.03 0.03 0.03 0.03 0.04 0.04 0.04 0.03 0.03 0.03 0.04 0.04
0.04 0.04 0.04 0.05 0.05 0.05 0.05 0.06 0.06 0.05 0.05 0.05 0.05 0.06 0.06 0.06 0.06 0.07 0.06 0.05 0.04 0.04 0.03 0.03 0.03 0.03 0.03 0.03 0.03 0.03 0.03 0.03 0.03 0.03 0.03 0.03 0.04 0.04 0.04 0.03 0.03 0.03 0.03
0.03 0.03 0.04 0.04 0.04 0.04 0.04 0.05 0.06 0.05 0.05 0.05 0.05 0.05 0.06 0.06 0.06 0.06 0.06 0.05 0.04 0.04 0.04 0.04 0.04 0.04 0.03 0.03 0.03 0.03 0.03 0.03 0.03 0.03 0.03 0.03 0.03 0.04 0.04 0.04 0.03 0.03 0.03
0.03 0.03 0.03 0.03 0.03 0.04 0.04 0.05 0.05 0.05 0.05 0.05 0.05 0.05 0.06 0.05 0.05 0.05 0.05 0.05 0.05 0.04 0.04 0.04 0.04 0.04 0.04 0.04 0.04 0.04 0.03 0.03 0.03 0.03 0.03 0.03 0.03 0.03 0.04 0.04 0.04 0.04 0.04
0.03 0.03 0.03 0.03 0.03 0.04 0.04 0.05 0.05 0.04 0.05 0.05 0.04 0.04 0.04 0.04 0.04 0.05 0.05 0.05 0.05 0.05 0.04 0.04 0.04 0.04 0.04 0.04 0.05 0.05 0.05 0.04 0.03 0.03 0.03 0.04 0.03 0.04 0.04 0.04 0.05 0.05 0.05
0.02 0.03 0.03 0.03 0.03 0.03 0.04 0.05 0.05 0.04 0.04 0.05 0.04 0.04 0.04 0.04 0.04 0.04 0.04 0.05 0.05 0.05 0.04 0.04 0.03 0.03 0.03 0.04 0.04 0.04 0.05 0.04 0.04 0.04 0.04 0.04 0.04 0.05 0.05 0.05 0.05 0.06 0.05
0.02 0.02 0.02 0.03 0.03 0.03 0.03 0.04 0.04 0.04 0.04 0.05 0.04 0.04 0.04 0.04 0.04 0.04 0.04 0.04 0.04 0.04 0.03 0.03 0.03 0.02 0.02 0.03 0.03 0.03 0.03 0.03 0.04 0.04 0.04 0.04 0.04 0.05 0.05 0.06 0.06 0.06 0.06
0.02 0.02 0.02 0.02 0.02 0.03 0.03 0.04 0.04 0.04 0.04 0.04 0.04 0.04 0.04 0.03 0.03 0.03 0.03 0.03 0.03 0.03 0.03 0.02 0.02 0.02 0.02 0.02 0.02 0.02 0.02 0.02 0.03 0.03 0.04 0.03 0.04 0.04 0.05 0.05 0.05 0.05 0.05
MSLP
1018.94 1017.53 1016.06 1014.49 1012.82 1011.04 1009.19 1007.32 1005.48 1003.74 1002.18 1000.84 999.78 999.03 998.61 998.50 998.70 999.18 999.90 1000.83 1001.92 1003.12 1004.40 1005.70 1007.00 1008.26 1009.48 1010.66 1011.78 1012.87 1013.94 1014.99 1016.02 1017.04 1018.02 1018.96 1019.83 1020.64 1021.37 1022.02 1022.61 1023.14 1023.64
1019.40 1018.01 1016.55 1015.02 1013.39 1011.68 1009.90 1008.10 1006.33 1004.63 1003.07 1001.71 1000.58 999.73 999.18 998.92 998.96 999.28 999.84 1000.62 1001.58 1002.65 1003.81 1005.01 1006.22 1007.41 1008.58 1009.72 1010.84 1011.94 1013.03 1014.12 1015.20 1016.26 1017.29 1018.27 1019.19 1020.02 1020.77 1021.43 1022.03 1022.57 1023.08
1020.00 1018.65 1017.22 1015.73 1014.18 1012.56 1010.90 1009.22 1007.56 1005.96 1004.47 1003.12 1001.96 1001.03 1000.34 999.92 999.76 999.86 1000.20 1000.75 1001.49 1002.37 1003.34 1004.38 1005.46 1006.56 1007.66 1008.77 1009.87 1010.98 1012.10 1013.23 1014.35 1015.46 1016.53 1017.54 1018.47 1019.31 1020.07 1020.74 1021.34 1021.88 1022.39
1020.68 1019.37 1018.00 1016.57 1015.10 1013.59 1012.07 1010.55 1009.06 1007.60 1006.22 1004.95 1003.80 1002.82 1002.02 1001.42 1001.05 1000.90 1000.97 1001.24 1001.70 1002.32 1003.06 1003.90 1004.82 1005.78 1006.79 1007.83 1008.91 1010.01 1011.15 1012.30 1013.45 1014.58 1015.67 1016.69 1017.63 1018.48 1019.23 1019.90 1020.49 1021.03 1021.54
1021.35 1020.10 1018.79 1017.43 1016.06 1014.69 1013.33 1011.99 1010.68 1009.42 1008.19 1007.02 1005.93 1004.93 1004.04 1003.30 1002.72 1002.32 1002.10 1002.08 1002.24 1002.57 1003.04 1003.64 1004.35 1005.16 1006.04 1006.99 1008.00 1009.07 1010.18 1011.32 1012.47 1013.60 1014.69 1015.71 1016.64 1017.48 1018.23 1018.89 1019.48 1020.02 1020.54
1021.96 1020.78 1019.54 1018.27 1017.00 1015.76 1014.57 1013.42 1012.31 1011.24 1010.19 1009.15 1008.14 1007.16 1006.23 1005.37 1004.62 1003.99 1003.51 1003.20 1003.07 1003.11 1003.31 1003.66 1004.15 1004.76 1005.48 1006.30 1007.21 1008.19 1009.23 1010.31 1011.42 1012.51 1013.57 1014.56 1015.48 1016.32 1017.06 1017.73 1018.33 1018.89 1019.42
1022.47 1021.38 1020.22 1019.03 1017.87 1016.77 1015.73 1014.76 1013.84 1012.95 1012.08 1011.19 1010.27 1009.34 1008.39 1007.46 1006.58 1005.78 1005.09 1004.54 1004.16 1003.94 1003.88 1003.99 1004.25 1004.65 1005.17 1005.82 1006.56 1007.40 1008.32 1009.29 1010.30 1011.32 1012.32 1013.27 1014.18 1015.01 1015.76 1016.46 1017.09 1017.67 1018.23
1022.88 1021.89 1020.82 1019.73 1018.68 1017.69 1016.79 1015.96 1015.21 1014.48 1013.75 1012.99 1012.18 1011.30 1010.38 1009.42 1008.47 1007.55 1006.72 1006.00 1005.42 1004.99 1004.72 1004.60 1004.64 1004.81 1005.12 1005.55 1006.10 1006.74 1007.48 1008.29 1009.16 1010.06 1010.98 1011.88 1012.76 1013.60 1014.39 1015.12 1015.80 1016.44 1017.05
1023.22 1022.33 1021.37 1020.38 1019.42 1018.54 1017.75 1017.04 1016.40 1015.79 1015.17 1014.51 1013.78 1012.97 1012.08 1011.13 1010.16 1009.20 1008.29 1007.46 1006.75 1006.18 1005.74 1005.44 1005.27 1005.23 1005.31 1005.50 1005.81 1006.22 1006.73 1007.34 1008.03 1008.79 1009.61 1010.45 1011.31 1012.16 1012.99 1013.78 1014.54 1015.25 1015.91
1023.49 1022.73 1021.88 1021.00 1020.14 1019.35 1018.64 1018.01 1017.44 1016.90 1016.35 1015.75 1015.08 1014.32 1013.47 1012.56 1011.60 1010.65 1009.72 1008.86 1008.09 1007.42 1006.86 1006.42 1006.08 1005.83 1005.69 1005.64 1005.69 1005.84 1006.10 1006.48 1006.97 1007.57 1008.26 1009.04 1009.87 1010.74 1011.61 1012.48 1013.32 1014.11 1014.85
1023.71 1023.09 1022.37 1021.60 1020.84 1020.12 1019.47 1018.88 1018.35 1017.84 1017.32 1016.75 1016.11 1015.39 1014.58 1013.71 1012.80 1011.88 1010.99 1010.14 1009.36 1008.65 1008.02 1007.47 1006.99 1006.57 1006.21 1005.93 1005.73 1005.62 1005.63 1005.77 1006.05 1006.47 1007.03 1007.72 1008.51 1009.38 1010.29 1011.22 1012.14 1013.01 1013.83
1023.87 1023.39 1022.80 1022.15 1021.49 1020.85 1020.24 1019.68 1019.16 1018.65 1018.12 1017.56 1016.93 1016.23 1015.46 1014.64 1013.79 1012.93 1012.09 1011.29 1010.53 1009.83 1009.17 1008.55 1007.96 1007.39 1006.86 1006.36 1005.93 1005.58 1005.35 1005.25 1005.31 1005.55 1005.96 1006.54 1007.27 1008.12 1009.04 1010.01 1010.98 1011.92 1012.80
1023.94 1023.61 1023.16 1022.63 1022.06 1021.49 1020.93 1020.39 1019.87 1019.35 1018.81 1018.23 1017.60 1016.91 1016.18 1015.41 1014.62 1013.84 1013.07 1012.33 1011.62 1010.94 1010.27 1009.62 1008.95 1008.28 1007.61 1006.94 1006.32 1005.76 1005.30 1004.99 1004.85 1004.89 1005.14 1005.58 1006.21 1006.99 1007.88 1008.84 1009.82 1010.80 1011.72
1023.91 1023.71 1023.38 1022.97 1022.51 1022.01 1021.50 1020.99 1020.47 1019.94 1019.39 1018.81 1018.18 1017.52 1016.82 1016.10 1015.37 1014.66 1013.96 1013.29 1012.64 1011.99 1011.35 1010.68 1009.98 1009.24 1008.47 1007.69 1006.92 1006.19 1005.56 1005.05 1004.70 1004.56 1004.62 1004.89 1005.37 1006.02 1006.81 1007.70 1008.65 1009.61 1010.55
1023.78 1023.68 1023.46 1023.16 1022.79 1022.37 1021.92 1021.45 1020.96 1020.45 1019.90 1019.33 1018.72 1018.08 1017.42 1016.76 1016.09 1015.45 1014.82 1014.21 1013.62 1013.02 1012.41 1011.75 1011.05 1010.29 1009.47 1008.62 1007.75 1006.91 1006.14 1005.46 1004.94 1004.59 1004.44 1004.51 1004.78 1005.24 1005.87 1006.63 1007.47 1008.37 1009.27
1023.55 1023.53 1023.40 1023.19 1022.91 1022.57 1022.19 1021.78 1021.33 1020.85 1020.34 1019.80 1019.23 1018.64 1018.03 1017.42 1016.82 1016.23 1015.67 1015.12 1014.58 1014.03 1013.46 1012.84 1012.16 1011.42 1010.60 1009.73 1008.83 1007.92 1007.05 1006.24 1005.55 1005.01 1004.63 1004.46 1004.48 1004.70 1005.09 1005.65 1006.33 1007.11 1007.94
1023.29 1023.31 1023.24 1023.11 1022.90 1022.64 1022.34 1021.99 1021.61 1021.19 1020.74 1020.25 1019.73 1019.19 1018.64 1018.09 1017.55 1017.02 1016.51 1016.01 1015.52 1015.02 1014.50 1013.93 1013.30 1012.60 1011.82 1010.98 1010.08 1009.15 1008.22 1007.32 1006.48 1005.75 1005.15 1004.71 1004.45 1004.38 1004.50 1004.80 1005.27 1005.88 1006.62
1023.04 1023.08 1023.06 1022.98 1022.84 1022.65 1022.42 1022.15 1021.83 1021.48 1021.09 1020.67 1020.22 1019.74 1019.25 1018.75 1018.26 1017.78 1017.31 1016.86 1016.41 1015.95 1015.48 1014.96 1014.40 1013.77 1013.06 1012.28 1011.42 1010.50 1009.55 1008.58 1007.62 1006.72 1005.90 1005.20 1004.65 1004.28 1004.10 1004.12 1004.35 1004.77 1005.37
1022.87 1022.92 1022.92 1022.88 1022.79 1022.66 1022.50 1022.29 1022.04 1021.76 1021.43 1021.07 1020.68 1020.26 1019.82 1019.37 1018.92 1018.47 1018.03 1017.61 1017.19 1016.77 1016.34 1015.88 1015.38 1014.83 1014.20 1013.49 1012.70 1011.82 1010.87 1009.86 1008.81 1007.77 1006.75 1005.81 1004.99 1004.33 1003.86 1003.60 1003.58 1003.80 1004.25
1022.80 1022.84 1022.87 1022.86 1022.81 1022.73 1022.61 1022.46 1022.26 1022.03 1021.75 1021.44 1021.09 1020.71 1020.31 1019.89 1019.46 1019.03 1018.61 1018.20 1017.79 1017.40 1017.00 1016.59 1016.15 1015.66 1015.12 1014.49 1013.76 1012.93 1012.00 1010.98 1009.87 1008.72 1007.55 1006.41 1005.36 1004.45 1003.72 1003.21 1002.96 1002.98 1003.29
1022.81 1022.86 1022.90 1022.92 1022.90 1022.86 1022.77 1022.65 1022.48 1022.28 1022.03 1021.75 1021.42 1021.06 1020.68 1020.27 1019.85 1019.42 1019.00 1018.58 1018.18 1017.78 1017.40 1017.01 1016.61 1016.18 1015.69 1015.13 1014.46 1013.69 1012.79 1011.77 1010.63 1009.41 1008.14 1006.86 1005.64 1004.53 1003.60 1002.89 1002.45 1002.31 1002.48
1022.84 1022.92 1022.98 1023.02 1023.03 1023.00 1022.94 1022.83 1022.67 1022.48 1022.24 1021.95 1021.63 1021.27 1020.89 1020.47 1020.04 1019.60 1019.16 1018.72 1018.30 1017.90 1017.50 1017.12 1016.73 1016.32 1015.87 1015.35 1014.73 1013.99 1013.13 1012.12 1010.98 1009.73 1008.41 1007.05 1005.72 1004.49 1003.42 1002.57 1002.00 1001.72 1001.78
1022.82 1022.93 1023.02 1023.08 1023.11 1023.09 1023.03 1022.92 1022.76 1022.55 1022.30 1022.01 1021.67 1021.30 1020.90 1020.47 1020.01 1019.55 1019.08 1018.62 1018.17 1017.73 1017.31 1016.91 1016.51 1016.09 1015.64 1015.13 1014.53 1013.82 1012.98 1011.99 1010.87 1009.63 1008.29 1006.92 1005.55 1004.27 1003.13 1002.21 1001.54 1001.18 1001.15
1022.66 1022.80 1022.92 1023.00 1023.05 1023.04 1022.97 1022.85 1022.68 1022.46 1022.19 1021.87 1021.52 1021.13 1020.71 1020.26 1019.79 1019.30 1018.81 1018.31 1017.83 1017.35 1016.89 1016.45 1016.01 1015.56 1015.09 1014.56 1013.95 1013.25 1012.42 1011.46 1010.36 1009.15 1007.84 1006.48 1005.14 1003.86 1002.71 1001.76 1001.06 1000.64 1000.55
1022.31 1022.48 1022.62 1022.72 1022.78 1022.77 1022.70 1022.57 1022.39 1022.15 1021.86 1021.54 1021.17 1020.77 1020.34 1019.88 1019.40 1018.90 1018.38 1017.86 1017.33 1016.82 1016.31 1015.82 1015.33 1014.83 1014.31 1013.75 1013.12 1012.40 1011.58 1010.63 1009.57 1008.39 1007.14 1005.83 1004.53 1003.30 1002.18 1001.24 1000.53 1000.09 999.95
1021.77 1021.95 1022.11 1022.22 1022.28 1022.28 1022.21 1022.07 1021.88 1021.64 1021.35 1021.02 1020.65 1020.25 1019.82 1019.36 1018.87 1018.36 1017.84 1017.30 1016.74 1016.19 1015.64 1015.10 1014.55 1013.99 1013.42 1012.82 1012.15 1011.41 1010.58 1009.65 1008.62 1007.49 1006.29 1005.05 1003.82 1002.65 1001.58 1000.68 999.99 999.55 999.38
Thickness
5414 5418 5422 5426 5431 5435 5439 5444 5448 5454 5458 5463 5468 5473 5477 5480 5484 5487 5491 5495 5499 5504 5508 5513 5518 5523 5527 5531 5535 5538 5541 5544 5546 5549 5552 5555 5556 5557 5558 5560 5561 5563 5565
5402 5406 5409 5414 5418 5422 5427 5431 5436 5441 5446 5451 5456 5461 5465 5469 5473 5477 5480 5484 5489 5494 5498 5503 5508 5512 5517 5522 5526 5529 5533 5536 5538 5540 5543 5545 5547 5549 5550 5550 5552 5554 5556
5389 5393 5396 5400 5405 5410 5415 5419 5424 5429 5434 5439 5443 5448 5452 5456 5460 5465 5470 5474 5478 5483 5488 5492 5497 5501 5507 5511 5516 5520 5523 5527 5530 5533 5535 5536 5537 5538 5539 5540 5542 5543 5546
5376 5380 5383 5388 5393 5398 5403 5408 5411 5416 5421 5426 5430 5435 5439 5444 5448 5453 5458 5463 5468 5472 5477 5482 5486 5491 5497 5501 5505 5509 5513 5516 5520 5523 5525 5527 5527 5527 5528 5530 5531 5533 5535
5363 5367 5372 5376 5381 5385 5390 5395 5400 5403 5409 5414 5418 5422 5426 5431 5436 5441 5446 5452 5457 5461 5466 5471 5477 5482 5487 5492 5496 5499 5502 5506 5509 5512 5515 5516 5518 5518 5520 5522 5523 5524 5525
5352 5355 5359 5363 5368 5373 5378 5383 5388 5392 5397 5401 5405 5409 5414 5419 5424 5429 5434 5440 5445 5450 5456 5461 5465 5470 5476 5481 5485 5489 5493 5497 5500 5503 5506 5509 5512 5512 5512 5513 5513 5513 5517
5340 5343 5346 5350 5355 5360 5366 5371 5376 5380 5384 5389 5393 5398 5403 5407 5412 5418 5422 5427 5433 5438 5443 5449 5454 5459 5464 5468 5473 5477 5481 5485 5490 5494 5497 5501 5503 5505 5505 5505 5505 5506 5510
5328 5331 5335 5339 5343 5349 5354 5359 5363 5368 5372 5377 5383 5386 5391 5396 5400 5406 5410 5415 5420 5426 5432 5436 5442 5447 5452 5456 5460 5464 5468 5473 5478 5482 5488 5492 5492 5493 5495 5497 5498 5497 5497
5319 5322 5326 5329 5333 5338 5343 5347 5351 5356 5361 5365 5371 5375 5380 5384 5388 5394 5398 5403 5409 5414 5419 5424 5430 5435 5440 5444 5448 5452 5457 5461 5465 5468 5473 5477 5480 5482 5484 5484 5485 5485 5487
5311 5314 5317 5320 5324 5328 5332 5336 5340 5345 5350 5354 5359 5364 5368 5372 5378 5383 5387 5391 5397 5402 5406 5412 5417 5422 5427 5431 5435 5440 5444 5449 5451 5455 5458 5462 5466 5469 5472 5474 5476 5476 5476
5303 5305 5308 5311 5315 5319 5323 5326 5330 5334 5339 5343 5348 5353 5357 5361 5366 5370 5375 5380 5384 5390 5394 5400 5405 5410 5415 5419 5424 5428 5433 5436 5438 5441 5444 5448 5451 5454 5458 5461 5463 5466 5467
5294 5297 5300 5303 5306 5310 5313 5316 5320 5323 5327 5332 5337 5342 5346 5350 5354 5358 5363 5368 5373 5378 5383 5388 5393 5398 5403 5407 5411 5415 5418 5421 5424 5427 5430 5433 5437 5441 5444 5447 5450 5452 5454
5286 5288 5291 5294 5297 5300 5304 5307 5309 5313 5316 5321 5325 5330 5335 5339 5342 5347 5352 5357 5362 5366 5371 5376 5380 5385 5390 5394 5398 5401 5404 5406 5409 5413 5416 5419 5423 5426 5429 5432 5435 5437 5439
5276 5278 5281 5284 5287 5290 5293 5297 5299 5302 5305 5309 5314 5319 5323 5327 5331 5335 5339 5344 5350 5354 5358 5362 5367 5371 5376 5380 5383 5386 5389 5393 5396 5399 5402 5404 5406 5410 5414 5417 5420 5422 5424
5267 5269 5271 5274 5276 5279 5282 5285 5288 5292 5295 5299 5303 5308 5312 5316 5319 5324 5328 5333 5338 5342 5346 5350 5354 5357 5361 5364 5368 5371 5375 5379 5382 5385 5387 5389 5391 5395 5399 5402 5405 5407 5409
5258 5260 5261 5263 5266 5269 5271 5274 5277 5281 5285 5287 5291 5296 5300 5305 5308 5312 5317 5321 5326 5330 5334 5337 5340 5343 5346 5349 5353 5356 5360 5363 5367 5370 5373 5375 5377 5380 5383 5386 5389 5391 5394
5248 5250 5251 5254 5256 5258 5261 5264 5267 5270 5274 5277 5280 5284 5287 5292 5296 5300 5304 5308 5312 5316 5319 5321 5325 5328 5331 5334 5338 5342 5345 5348 5351 5355 5358 5361 5363 5365 5368 5371 5374 5376 5379
5240 5241 5243 5244 5246 5248 5250 5252 5255 5259 5262 5265 5268 5272 5275 5279 5283 5286 5290 5293 5296 5300 5303 5307 5311 5314 5317 5320 5324 5327 5330 5334 5337 5340 5343 5346 5349 5352 5355 5357 5360 5362 5365
5232 5233 5234 5235 5237 5239 5241 5243 5245 5247 5250 5254 5258 5260 5263 5266 5270 5273 5276 5279 5282 5285 5289 5292 5296 5299 5303 5306 5310 5313 5316 5319 5323 5326 5328 5331 5334 5338 5341 5343 5346 5349 5351
5223 5225 5227 5227 5229 5231 5232 5234 5235 5237 5240 5244 5247 5250 5252 5255 5257 5260 5263 5265 5268 5272 5275 5278 5282 5285 5289 5293 5296 5299 5302 5306 5309 5312 5315 5317 5321 5324 5327 5329 5332 5334 5337
5215 5216 5219 5220 5220 5222 5223 5224 5226 5228 5231 5234 5236 5240 5243 5244 5246 5249 5251 5254 5257 5260 5263 5266 5269 5272 5276 5279 5283 5286 5289 5292 5295 5298 5301 5304 5307 5310 5313 5316 5319 5321 5323
5208 5208 5210 5210 5212 5213 5214 5215 5218 5220 5222 5224 5227 5229 5232 5233 5235 5238 5240 5243 5245 5248 5250 5253 5257 5260 5264 5267 5270 5273 5276 5279 5282 5284 5287 5290 5293 5297 5300 5302 5305 5307 5309
5200 5201 5202 5202 5203 5205 5206 5208 5209 5211 5213 5215 5217 5219 5220 5223 5225 5227 5230 5232 5234 5237 5240 5243 5247 5250 5253 5255 5258 5261 5264 5267 5269 5272 5275 5277 5280 5283 5286 5289 5291 5293 5295
5192 5193 5193 5194 5195 5196 5197 5199 5201 5203 5205 5206 5207 5209 5210 5212 5214 5217 5219 5221 5224 5227 5230 5233 5236 5240 5243 5245 5247 5250 5253 5256 5258 5261 5264 5266 5269 5271 5274 5276 5278 5280 5282
5186 5186 5186 5186 5187 5188 5189 5190 5191 5193 5195 5197 5198 5199 5201 5202 5204 5207 5209 5211 5214 5217 5220 5223 5226 5230 5233 5235 5237 5240 5243 5246 5248 5251 5254 5256 5258 5260 5262 5264 5266 5268 5270
5180 5179 5179 5179 5179 5179 5181 5182 5183 5185 5186 5188 5189 5190 5191 5193 5195 5197 5199 5202 5205 5208 5211 5214 5217 5220 5223 5225 5228 5231 5233 5236 5239 5242 5244 5247 5248 5250 5252 5254 5255 5257 5258